TimeCDT,TemperatureF,Dew PointF,Humidity,Sea Level PressureIn,VisibilityMPH,Wind Direction,Wind SpeedMPH,Gust SpeedMPH,PrecipitationIn,Events,Conditions,WindDirDegrees,DateUTC
12:52 AM,86.0,57.0,37,29.94,10.0,ESE,11.5,-,N/A,,Clear,120,2013-09-15 05:52:00
1:52 AM,84.9,57.0,38,29.94,10.0,SE,12.7,-,N/A,,Clear,130,2013-09-15 06:52:00
2:52 AM,82.9,57.9,42,29.94,10.0,ESE,10.4,-,N/A,,Clear,120,2013-09-15 07:52:00
3:52 AM,82.0,57.9,44,29.94,10.0,SE,6.9,-,N/A,,Clear,130,2013-09-15 08:52:00
4:52 AM,81.0,60.1,49,29.94,10.0,SE,5.8,-,N/A,,Clear,130,2013-09-15 09:52:00
5:52 AM,81.0,61.0,50,29.95,10.0,SE,6.9,-,N/A,,Clear,130,2013-09-15 10:52:00
6:52 AM,80.1,62.1,54,29.97,10.0,SE,5.8,-,N/A,,Partly Cloudy,130,2013-09-15 11:52:00
7:52 AM,80.1,62.1,54,30.00,10.0,SE,4.6,-,N/A,,Clear,140,2013-09-15 12:52:00
7:56 AM,80.6,62.6,54,30.04,10.0,SE,5.8,-,N/A,,Partly Cloudy,130,2013-09-15 12:56:00
8:52 AM,82.0,63.0,52,30.01,10.0,SSE,5.8,-,N/A,,Partly Cloudy,150,2013-09-15 13:52:00
9:52 AM,84.9,64.9,51,30.02,10.0,SE,6.9,-,N/A,,Partly Cloudy,130,2013-09-15 14:52:00
10:52 AM,88.0,66.0,48,30.03,10.0,SSE,9.2,-,N/A,,Mostly Cloudy,150,2013-09-15 15:52:00
11:52 AM,91.0,64.9,42,30.02,10.0,SSE,8.1,-,N/A,,Mostly Cloudy,150,2013-09-15 16:52:00
12:52 PM,93.0,64.9,39,30.01,10.0,SE,5.8,-,N/A,,Mostly Cloudy,140,2013-09-15 17:52:00
1:52 PM,95.0,64.0,36,30.00,10.0,East,8.1,-,N/A,,Mostly Cloudy,100,2013-09-15 18:52:00
2:52 PM,95.0,64.0,36,29.97,10.0,Variable,5.8,-,N/A,,Mostly Cloudy,0,2013-09-15 19:52:00
3:52 PM,97.0,62.1,31,29.96,10.0,SE,9.2,-,N/A,,Mostly Cloudy,140,2013-09-15 20:52:00
4:52 PM,95.0,62.1,33,29.95,10.0,SE,8.1,-,N/A,,Mostly Cloudy,130,2013-09-15 21:52:00
5:52 PM,95.0,62.1,33,29.95,10.0,ESE,6.9,-,N/A,,Clear,110,2013-09-15 22:52:00
6:52 PM,93.9,60.1,32,29.95,10.0,ESE,9.2,-,N/A,,Clear,110,2013-09-15 23:52:00
7:52 PM,93.0,61.0,34,29.96,10.0,ESE,10.4,-,N/A,,Clear,120,2013-09-16 00:52:00
8:52 PM,90.0,62.1,39,29.98,10.0,SSE,5.8,-,N/A,,Clear,160,2013-09-16 01:52:00
9:52 PM,89.1,62.1,40,30.00,10.0,SSE,4.6,-,N/A,,Clear,160,2013-09-16 02:52:00
10:52 PM,89.1,61.0,39,30.00,10.0,SE,5.8,-,N/A,,Clear,130,2013-09-16 03:52:00
11:52 PM,88.0,60.1,39,30.01,10.0,ESE,5.8,-,N/A,,Clear,120,2013-09-16 04:52:00